[[{"header":{"parameterUnit":"m.s-1","parameterCategory":1,"la1":30.2991,"la2":30.254,"lo1":-89.0895,"lo2":-89.0444,"dy":0.0017,"dx":0.0017,"nx":28,"ny":28,"refTime":"2024-02-23T09:00:00:Z","depth":0,"parameterNumber":2,"parameterNumberName":"U-component_of_WINDS"},"data":[0,0,0,0,0,0,0,0,0,0,0,0,0,0,0,0,0,0,0,0,0,0,0,0,0,0,0,0,0,0,0,0,0,0,0,0,0,0,0,0,0,0,0,0,0,0,0,0,0,0,0,0,0,0,0,0,0,0,1.3244,1.3243,0,1.3213,1.3212,1.3212,1.3164,1.3163,1.3162,1.3161,1.3131,1.3131,1.3131,0,0,0,0,0,0,0,0,0,0,0,0,0,1.3262,1.3262,1.3244,1.3243,1.3243,1.3213,1.3212,1.3212,1.3164,1.3163,1.3162,1.3161,1.3131,1.3131,1.3131,0,0,0,0,0,0,0,0,0,0,0,0,0,1.3245,1.3262,1.3244,1.3215,1.3212,1.3213,1.3212,1.3212,1.3164,1.3163,1.3161,1.316,1.3131,1.3131,1.3131,1.3157,0,0,1.3131,1.3131,0,0,0,0,0,0,0,0,1.3246,1.3245,1.322,1.3217,1.3214,1.3191,1.3208,1.3194,1.3164,1.3182,1.3161,1.316,1.3152,1.315,1.3147,1.3156,1.3155,1.3131,1.3131,1.3131,1.3131,0,0,0,0,0,0,0,1.3248,1.3246,1.3231,1.3219,1.3216,1.3204,1.3201,1.3205,1.3175,1.3181,1.3177,1.3174,1.315,1.3147,1.3146,1.3154,1.3131,1.3131,1.3131,1.3131,1.3183,1.3184,0,0,0,0,0,0,1.3253,1.3247,1.3232,1.323,1.3227,1.3205,1.3201,1.3199,1.3175,1.317,1.3175,1.3172,1.3148,1.3146,1.3145,1.3174,1.3131,1.3131,1.3131,1.3182,1.3183,1.3185,0,0,0,0,0,0,1.3253,1.3252,1.3234,1.3238,1.3234,1.3206,1.3205,1.32,1.3197,1.3171,1.3165,1.3178,1.3147,1.3145,1.3155,1.3173,1.3131,1.3131,1.318,1.3182,1.3184,1.3233,0,0,0,0,0,0,1.3254,1.3252,1.3262,1.3238,1.3234,1.3243,1.3206,1.32,1.3197,1.3192,1.3172,1.3167,1.3146,1.3155,1.3155,1.3172,1.3131,1.3178,1.3181,1.3183,1.323,1.3237,1.3243,0,0,0,0,0,1.3255,1.3277,1.3263,1.3261,1.3246,1.3244,1.3242,1.3217,1.3198,1.3208,1.3191,1.3168,1.3171,1.3156,1.3156,1.3173,1.3177,1.318,1.3183,1.3227,1.3235,1.3242,0,0,0,0,0,0,1.3304,1.3274,1.3257,1.3272,1.3261,1.3236,1.3247,1.3227,1.3221,1.3217,1.3186,1.3182,1.3196,1.3185,1.317,1.3197,1.317,1.3173,1.3204,1.3212,1.3218,1.322,1.3131,0,0,0,0,0,1.3317,1.3318,1.3291,1.3307,1.3303,1.3276,1.3275,1.3256,1.3244,1.3239,1.3223,1.3212,1.3211,1.321,1.3208,1.3228,1.3223,1.324,1.3246,1.3251,1.3255,1.3265,1.3272,1.3195,1.3195,1.3195,0,0,1.3343,1.3326,1.3329,1.3317,1.3306,1.3309,1.3273,1.3277,1.3278,1.324,1.3248,1.3236,1.3222,1.3237,1.3243,1.3228,1.3275,1.3255,1.326,1.326,1.3269,1.3276,1.3283,1.3197,1.3196,1.3196,0,0,1.3392,1.3379,1.3391,1.3381,1.3365,1.3347,1.335,1.3328,1.3319,1.3326,1.3297,1.3299,1.3297,1.3288,1.3284,1.3329,1.3308,1.3329,1.3363,1.3373,1.3379,1.3384,1.3401,1.3407,1.3332,1.3332,1.3332,0,1.3427,1.3428,1.34,1.3406,1.3402,1.3366,1.3379,1.337,1.3355,1.3353,1.3337,1.3333,1.3322,1.3334,1.3345,1.3343,1.3346,1.3332,1.338,1.3385,1.339,1.3406,1.3412,1.3335,1.3335,1.3335,1.3334,0,1.3472,1.3474,1.3486,1.3471,1.3468,1.3477,1.3451,1.3451,1.3433,1.3417,1.3425,1.3409,1.3403,1.3404,1.3386,1.3415,1.3406,1.3386,1.3358,1.3401,1.3415,1.342,1.3339,1.3338,1.3337,1.3337,0,0,1.3552,1.3521,1.3526,1.3519,1.3498,1.3499,1.3507,1.35,1.3501,1.3492,1.3498,1.3497,1.3478,1.3472,1.3453,1.3462,1.35,1.3441,1.344,1.3453,1.3531,1.3547,1.3554,1.3485,1.3486,1.3487,1.3532,0,1.3597,1.3608,1.3582,1.36,1.3601,1.3568,1.3574,1.3563,1.3548,1.3548,1.3532,1.3532,1.3506,1.3503,1.351,1.3494,1.3515,1.349,1.3491,1.3492,1.3497,1.3561,1.3578,1.3621,1.3537,1.3538,1.3539,0,1.3651,1.3644,1.3661,1.364,1.364,1.3646,1.3638,1.3638,1.3624,1.3613,1.3607,1.3585,1.3591,1.3564,1.3573,1.3557,1.3555,1.3547,1.3548,1.3548,1.3518,1.3563,1.3634,1.3641,1.3547,1.3547,1.3546,0,1.3708,1.3702,1.3712,1.3707,1.3682,1.3688,1.3678,1.3663,1.3661,1.3653,1.3652,1.3646,1.3643,1.3639,1.3615,1.3598,1.3627,1.3598,1.3619,1.3619,1.3627,1.3627,1.3699,1.3626,1.3625,1.3625,1.3625,0,1.3761,1.3773,1.3737,1.3743,1.3756,1.3727,1.374,1.3727,1.3714,1.3718,1.3688,1.3692,1.3661,1.3662,1.3643,1.3654,1.3653,1.3644,1.3639,1.3647,1.3648,1.3646,1.3643,1.3627,1.3627,1.3626,1.3626,0,1.3826,1.3803,1.3811,1.3787,1.3781,1.3792,1.3772,1.3777,1.376,1.3765,1.3764,1.3738,1.3737,1.3714,1.3708,1.3696,1.3714,1.3703,1.3718,1.3715,1.3737,1.3736,1.3811,1.382,1.374,1.3741,1.3742,0,1.3862,1.387,1.3847,1.3847,1.3839,1.3839,1.3836,1.3808,1.3807,1.3792,1.3799,1.3796,1.3792,1.3792,1.3773,1.3769,1.3758,1.3785,1.3757,1.3765,1.3759,1.3759,1.376,1.3791,1.3792,1.3793,1.3793,0,1.3928,1.3916,1.3913,1.3906,1.3903,1.3897,1.3888,1.389,1.3859,1.3859,1.3857,1.3854,1.3848,1.3846,1.3838,1.3828,1.3806,1.3802,1.3807,1.3815,1.3824,1.382,1.3735,1.3801,1.38,1.3799,1.3799,1.3799,1.398,1.3986,1.3971,1.3968,1.3959,1.3952,1.3955,1.3939,1.3937,1.393,1.3913,1.3915,1.3902,1.3889,1.3881,1.3882,1.3868,1.3875,1.3877,1.3879,1.3883,1.3823,1.388,1.388,1.388,1.388,1.3879,0,1.4044,1.4033,1.4031,1.402,1.4018,1.3997,1.3986,1.3987,1.3988,1.3977,1.3974,1.3973,1.397,1.3951,1.3946,1.3951,1.394,1.395,1.395,1.3948,1.3895,1.3892,1.3959,1.3959,1.3959,1.3959,1.3959,1.3959,1.4078,1.4087,1.4073,1.4078,1.4066,1.4067,1.4063,1.4056,1.4048,1.4048,1.4045,1.4032,1.4018,1.4012,1.4009,1.4004,1.4004,1.4017,1.4008,1.396,1.3952,1.3945,1.3941,1.4017,1.4017,1.4061,1.4061,1.4062]},{"header":{"parameterUnit":"m.s-1","parameterCategory":1,"la1":30.2991,"la2":30.254,"lo1":-89.0895,"lo2":-89.0444,"dy":0.0017,"dx":0.0017,"nx":28,"ny":28,"refTime":"2024-02-23T09:00:00:Z","depth":0,"parameterNumber":3,"parameterNumberName":"V-component_of_WINDS"},"data":[0,0,0,0,0,0,0,0,0,0,0,0,0,0,0,0,0,0,0,0,0,0,0,0,0,0,0,0,0,0,0,0,0,0,0,0,0,0,0,0,0,0,0,0,0,0,0,0,0,0,0,0,0,0,0,0,0,0,5.0877,5.0878,0,5.1022,5.1023,5.1025,5.102,5.1018,5.1016,5.1014,5.116,5.1166,5.1172,0,0,0,0,0,0,0,0,0,0,0,0,0,5.0593,5.0598,5.0877,5.0878,5.088,5.1021,5.1023,5.1025,5.102,5.1017,5.1015,5.1013,5.1158,5.1165,5.1172,0,0,0,0,0,0,0,0,0,0,0,0,0,5.0725,5.06,5.0876,5.0895,5.0898,5.1021,5.1023,5.1026,5.102,5.1017,5.1014,5.1012,5.1156,5.1165,5.1173,5.1287,0,0,5.12,5.1203,0,0,0,0,0,0,0,0,5.0717,5.0735,5.089,5.0894,5.0897,5.0999,5.0977,5.1113,5.1021,5.0974,5.1014,5.101,5.1109,5.1121,5.1155,5.1294,5.13,5.12,5.1206,5.1209,5.1212,0,0,0,0,0,0,0,5.0708,5.0729,5.0934,5.0892,5.0897,5.0895,5.091,5.1003,5.1057,5.0978,5.0978,5.0995,5.111,5.1147,5.1159,5.1303,5.12,5.1208,5.1213,5.1217,5.1542,5.1546,0,0,0,0,0,0,5.0696,5.0721,5.0929,5.0938,5.0798,5.0902,5.092,5.097,5.1056,5.1066,5.0997,5.0994,5.1134,5.1149,5.1164,5.1304,5.1209,5.1217,5.1222,5.1539,5.1543,5.1547,0,0,0,0,0,0,5.0689,5.0714,5.0923,5.083,5.0856,5.0911,5.0967,5.0974,5.1011,5.1071,5.108,5.1025,5.1132,5.1152,5.1257,5.1309,5.1221,5.1229,5.1535,5.154,5.1545,5.1584,0,0,0,0,0,0,5.0681,5.0712,5.0757,5.0831,5.0862,5.1015,5.097,5.0979,5.1026,5.1023,5.1099,5.1109,5.1131,5.1244,5.1265,5.1319,5.1236,5.153,5.1537,5.1543,5.1579,5.159,5.16,0,0,0,0,0,5.0671,5.0761,5.0759,5.0784,5.0918,5.1018,5.1035,5.106,5.103,5.1075,5.1113,5.1106,5.1299,5.1255,5.1279,5.1336,5.1527,5.1535,5.1543,5.1574,5.1588,5.16,0,0,0,0,0,0,5.0691,5.0771,5.077,5.0887,5.0946,5.1017,5.1075,5.1074,5.1142,5.1137,5.1163,5.118,5.1286,5.1321,5.127,5.1451,5.1409,5.1422,5.1425,5.1438,5.1449,5.1439,5.1243,0,0,0,0,0,5.0709,5.0784,5.085,5.0946,5.0976,5.102,5.1064,5.1078,5.114,5.1165,5.1211,5.1271,5.1345,5.1393,5.1465,5.1583,5.1599,5.1634,5.1645,5.1653,5.1664,5.173,5.1746,5.1572,5.1572,5.1572,0,0,5.0747,5.08,5.0846,5.0952,5.0999,5.1076,5.1041,5.1123,5.118,5.1177,5.128,5.1316,5.1384,5.1496,5.1548,5.1529,5.1716,5.1663,5.1669,5.1676,5.174,5.1756,5.1771,5.1577,5.1577,5.1576,0,0,5.0856,5.0903,5.099,5.1038,5.111,5.1138,5.1159,5.1231,5.1255,5.1358,5.1357,5.1424,5.1551,5.1601,5.1642,5.1768,5.1765,5.1791,5.1847,5.1911,5.1924,5.1937,5.1983,5.1999,5.1801,5.1801,5.1802,0,5.0894,5.101,5.1034,5.1117,5.1164,5.1164,5.1252,5.1297,5.1389,5.1421,5.1398,5.1557,5.1603,5.1727,5.1758,5.1791,5.1816,5.1783,5.1921,5.1933,5.1945,5.1989,5.2006,5.1804,5.1804,5.1804,5.1803,0,5.1054,5.1134,5.1195,5.1284,5.1337,5.1422,5.1458,5.1509,5.1518,5.1548,5.1653,5.1708,5.1791,5.1821,5.183,5.1947,5.1933,5.1915,5.1874,5.1964,5.2006,5.2023,5.1808,5.1807,5.1806,5.1806,0,0,5.1181,5.1282,5.1304,5.1344,5.1424,5.1486,5.157,5.1652,5.1695,5.1758,5.1829,5.1936,5.192,5.1967,5.1982,5.2037,5.2135,5.2013,5.2015,5.2034,5.2267,5.2281,5.2301,5.2132,5.2135,5.2138,5.2262,0,5.1299,5.145,5.1473,5.1606,5.168,5.1681,5.1755,5.1811,5.1841,5.1908,5.1941,5.2018,5.199,5.2019,5.2074,5.2111,5.2182,5.2102,5.2199,5.2202,5.2184,5.2323,5.2338,5.2453,5.2278,5.2281,5.2283,0,5.1457,5.1525,5.1665,5.1734,5.1766,5.1832,5.1909,5.1973,5.2036,5.2055,5.2107,5.2114,5.2201,5.2155,5.2275,5.222,5.2261,5.2285,5.229,5.2301,5.2249,5.2339,5.249,5.2508,5.2309,5.2307,5.2305,0,5.1537,5.1663,5.1764,5.1798,5.1881,5.1927,5.1964,5.2024,5.2072,5.2138,5.2169,5.2244,5.2286,5.2344,5.2371,5.2335,5.249,5.2445,5.2507,5.2507,5.2542,5.2539,5.2703,5.2565,5.2564,5.2564,5.2564,0,5.1668,5.1754,5.1801,5.1863,5.1959,5.1984,5.2079,5.2114,5.2167,5.2236,5.224,5.2304,5.2335,5.2403,5.2425,5.2521,5.254,5.2557,5.2562,5.2558,5.2556,5.2586,5.2579,5.2569,5.2568,5.2567,5.2566,0,5.1774,5.1809,5.1919,5.1988,5.2008,5.2076,5.2135,5.2195,5.2224,5.2311,5.2332,5.2379,5.2459,5.2492,5.259,5.2604,5.2716,5.2714,5.2695,5.2697,5.2758,5.2752,5.2947,5.2975,5.2817,5.2819,5.282,0,5.1856,5.1923,5.1999,5.2046,5.2084,5.2158,5.2207,5.2234,5.2284,5.2361,5.2412,5.2492,5.2559,5.2687,5.2729,5.2805,5.2805,5.2868,5.2817,5.281,5.2808,5.2804,5.2811,5.2878,5.288,5.2881,5.2882,0,5.1998,5.2012,5.2082,5.2159,5.2217,5.2279,5.2338,5.2376,5.2412,5.2468,5.2551,5.2602,5.2703,5.2783,5.2861,5.2897,5.2896,5.2898,5.2917,5.2914,5.2901,5.291,5.2723,5.2894,5.2893,5.2892,5.2891,5.2891,5.2096,5.2155,5.2219,5.2297,5.2344,5.24,5.246,5.2497,5.2567,5.2652,5.2663,5.2752,5.2813,5.2917,5.2957,5.3026,5.301,5.3036,5.3044,5.305,5.3055,5.2888,5.304,5.304,5.304,5.3039,5.3039,0,5.2239,5.228,5.2351,5.2435,5.2497,5.249,5.2556,5.2608,5.2686,5.2744,5.2809,5.2904,5.2982,5.3029,5.3107,5.3154,5.3155,5.3173,5.3171,5.318,5.3065,5.3042,5.3171,5.3171,5.3171,5.3171,5.3171,5.3171,5.2321,5.2421,5.2443,5.2566,5.2606,5.2694,5.2732,5.2784,5.283,5.2936,5.3001,5.3032,5.3085,5.3167,5.3237,5.3249,5.3278,5.3298,5.3309,5.3201,5.3188,5.3175,5.3153,5.3304,5.3304,5.3419,5.342,5.342]}]]